User: anonymous   Login
Location: Key Biscayne
(25.6930°N, 80.1630°W)
Time: 22:36:15
(UTC-04:00)
Language:

CZ-2D R/B - Orbit

View from above orbital plane
View from above orbital plane
View from above satellite
View from above satellite

Ground track
Ground track

The orbit data is extracted from the following two-line orbital elements,

1 28738U 05024B   14304.16197464  .00004423  00000-0  29547-3 0  8924
2 28738 097.6185 338.2015 0014837 062.1263 298.1466 15.07426357510946
Epoch (UTC): 31 October 2014 03:53:14
Eccentricity: 0.0014837
inclination: 97.6185°
perigee height: 534 km
apogee height: 554 km
right ascension of ascending node: 338.2015°
argument of perigee: 62.1263°
revolutions per day: 15.07426357
mean anomaly at epoch: 298.1466°
orbit number at epoch: 51094

The dashed part of the orbit path shows where the satellite is in the earth's shadow,  

DLR